Location: Newark
(40.7060°N, 73.9980°W)
Time: 21:53:35
(UTC+00:00)

N. Korean satellite - Pass Details

Date: 22 November 2019
Orbit: 456 x 506 km, 97.2° (Epoch: 05 December)

Event Time Altitude Azimuth Distance (km) Brightness Sun altitude
Rises 09:36:04 0° 37° (NE) 2,600 10.7 -25.2°
Reaches altitude 10° 09:40:30 10° 88° (E) 1,693 10.4 -24.4°
Maximum altitude 09:40:37 10° 90° (E) 1,692 10.4 -24.4°
Drops below altitude 10° 09:40:43 10° 91° (E) 1,692 10.4 -24.4°
Sets 09:45:04 0° 142° (SE) 2,546 10.9 -23.5°
